Date String (YYYY-MM-DD hh:mm:ss) UTC,Instrument flags,absolute air pressure of the measurement (hPa),sample flow rate (lpm),inlet stack bypass flow (lpm),air temperature of the measurement (°C),ambient temperature measured by the external sensor (°C),aerosol sample conditioner tube jacket temperature (°C),OPC LED temperature (°C),internal box temperature (°C),relative humidity of the measurement (%),span deviation,mass concentration of particles derived from Lorenz-Mie calculation of OPC scattering (μg/m³),mass concentration of particles derived from Lorenz-Mie calculation of OPC scattering (μg/m³),mass concentration of particles derived from Lorenz-Mie calculation of OPC scattering (μg/m³)
DateTimeUTC,F1_M11,P_M11,Q1_M11,Q2_M11,T1_M11,T2_M11,T3_M11,T4_M11,T5_M11,U1_M11,ZSPAN_M11,X2_M11,X0_M11,X1_M11
2024-04-22 07:00:00,SystemResetWarning,0826.7,4.99,000.00,024.6,023.8,000.0,033.2,026.4,020.1,0000.0,0004.10,0007.53,0003.47
2024-04-22 07:01:00,SystemResetWarning,0826.6,4.99,000.00,024.6,023.8,000.0,033.2,026.4,020.5,0000.0,0004.17,0007.44,0003.55
2024-04-22 07:02:00,SystemResetWarning,0826.7,5.01,000.00,024.6,023.7,000.0,033.2,026.4,020.3,0000.0,0004.30,0007.52,0003.69
2024-04-22 07:03:00,SystemResetWarning,0826.6,5.00,000.00,024.6,023.7,000.0,033.1,026.4,019.4,0000.0,0004.41,0007.54,0003.82
2024-04-22 07:04:00,SystemResetWarning,0826.6,5.00,000.00,024.5,023.7,000.0,033.1,026.3,019.2,0000.0,0004.50,0007.66,0003.92
2024-04-22 07:05:00,SystemResetWarning,0826.6,5.00,000.00,024.5,023.7,000.0,033.1,026.4,019.5,0000.0,0004.61,0007.79,0004.01
2024-04-22 07:06:00,SystemResetWarning,0826.6,5.00,000.00,024.5,023.7,000.0,033.1,026.3,019.2,0000.0,0004.70,0007.97,0004.11
2024-04-22 07:07:00,SystemResetWarning,0826.6,5.00,000.00,024.5,023.7,000.0,033.1,026.3,019.0,0000.0,0004.85,0009.07,0004.21
2024-04-22 07:08:00,SystemResetWarning,0826.6,5.00,000.00,024.5,023.6,000.0,033.1,026.3,018.5,0000.0,0004.91,0009.24,0004.27
2024-04-22 07:09:00,SystemResetWarning,0826.6,5.00,000.00,024.5,023.6,000.0,033.1,026.3,018.7,0000.0,0004.87,0009.16,0004.25
2024-04-22 07:10:00,SystemResetWarning,0826.6,5.00,000.00,024.5,023.6,000.0,033.1,026.3,019.1,0000.0,0004.83,0009.07,0004.21
2024-04-22 07:11:00,SystemResetWarning,0826.6,5.00,000.00,024.4,023.6,000.0,033.1,026.3,018.9,0000.0,0004.75,0008.94,0004.13
2024-04-22 07:12:00,SystemResetWarning,0826.6,5.00,000.00,024.4,023.5,000.0,033.1,026.3,018.0,0000.0,0004.65,0009.09,0004.05
2024-04-22 07:13:00,SystemResetWarning,0826.6,4.99,000.00,024.4,023.5,000.0,033.0,026.2,017.4,0000.0,0004.53,0009.20,0003.92
2024-04-22 07:14:00,SystemResetWarning,0826.5,5.00,000.00,024.4,023.5,000.0,033.0,026.2,016.9,0000.0,0004.44,0009.28,0003.80
2024-04-22 07:15:00,SystemResetWarning,0826.5,5.00,000.00,024.4,023.5,000.0,033.0,026.1,016.2,0000.0,0004.36,0009.20,0003.71
2024-04-22 07:16:00,SystemResetWarning,0826.4,5.00,000.00,024.4,023.4,000.0,033.0,026.1,014.9,0000.0,0004.22,0009.03,0003.60
2024-04-22 07:17:00,SystemResetWarning,0826.4,5.00,000.00,024.3,023.4,000.0,033.0,026.1,013.8,0000.0,0004.04,0008.72,0003.46
2024-04-22 07:18:00,SystemResetWarning,0826.4,5.00,000.00,024.3,023.4,000.0,033.0,026.1,013.3,0000.0,0003.82,0007.73,0003.29
2024-04-22 07:19:00,SystemResetWarning,0826.4,5.00,000.00,024.3,023.4,000.0,032.9,026.1,012.6,0000.0,0003.65,0007.42,0003.16
2024-04-22 07:20:00,SystemResetWarning,0826.4,5.00,000.00,024.3,023.3,000.0,032.9,026.1,012.0,0000.0,0003.60,0007.59,0002.98
2024-04-22 07:21:00,SystemResetWarning,0826.4,5.00,000.00,024.3,023.4,000.0,032.9,026.1,012.4,0000.0,0003.51,0007.74,0002.77
2024-04-22 07:22:00,SystemResetWarning,0826.4,5.00,000.00,024.3,023.4,000.0,032.9,026.1,012.4,0000.0,0003.35,0007.61,0002.51
2024-04-22 07:23:00,SystemResetWarning,0826.4,5.00,000.00,024.2,023.3,000.0,032.9,026.0,012.3,0000.0,0003.25,0007.21,0002.29
2024-04-22 07:24:00,SystemResetWarning,0826.4,5.00,000.00,024.2,023.3,000.0,032.9,026.0,013.2,0000.0,0003.15,0006.72,0002.10
2024-04-22 07:25:00,SystemResetWarning,0826.4,5.01,000.00,024.2,023.4,000.0,032.9,026.1,013.0,0000.0,0003.05,0006.83,0001.95
2024-04-22 07:26:00,SystemResetWarning,0826.4,5.00,000.00,024.2,023.4,000.0,032.8,026.0,012.6,0000.0,0002.93,0007.25,0001.83
2024-04-22 07:27:00,SystemResetWarning,0826.4,4.99,000.00,024.2,023.4,000.0,032.8,026.0,013.1,0000.0,0002.84,0007.17,0001.76
2024-04-22 07:28:00,SystemResetWarning,0826.4,5.00,000.00,024.2,023.4,000.0,032.8,026.0,013.2,0000.0,0002.84,0007.26,0001.74
2024-04-22 07:29:00,SystemResetWarning,0826.3,5.00,000.00,024.2,023.4,000.0,032.8,026.0,012.5,0000.0,0002.89,0007.41,0001.74
2024-04-22 07:30:00,SystemResetWarning,0826.3,5.00,000.00,024.2,023.4,000.0,032.8,026.0,013.1,0000.0,0002.93,0007.48,0001.74
2024-04-22 07:31:00,SystemResetWarning,0826.3,5.00,000.00,024.2,023.4,000.0,032.8,026.0,012.3,0000.0,0002.84,0007.38,0001.72
2024-04-22 07:32:00,SystemResetWarning,0826.4,5.00,000.00,024.2,023.4,000.0,032.8,026.0,013.9,0000.0,0002.76,0006.93,0001.70
2024-04-22 07:33:00,SystemResetWarning,0826.4,5.00,000.00,024.2,023.4,000.0,032.8,026.0,015.0,0000.0,0002.75,0006.87,0001.71
2024-04-22 07:34:00,SystemResetWarning,0826.4,5.00,000.00,024.2,023.4,000.0,032.8,026.0,013.7,0000.0,0002.74,0006.92,0001.73
2024-04-22 07:35:00,SystemResetWarning,0826.4,5.01,000.00,024.2,023.4,000.0,032.7,026.0,013.7,0000.0,0002.72,0007.11,0001.74
2024-04-22 07:36:00,SystemResetWarning,0826.4,5.00,000.00,024.2,023.4,000.0,032.7,026.0,013.6,0000.0,0002.65,0007.05,0001.74
2024-04-22 07:37:00,SystemResetWarning,0826.4,5.00,000.00,024.2,023.4,000.0,032.7,026.0,014.1,0000.0,0002.67,0007.21,0001.76
2024-04-22 07:38:00,SystemResetWarning,0826.4,5.00,000.00,024.2,023.4,000.0,032.7,026.0,013.8,0000.0,0002.76,0007.48,0001.79
2024-04-22 07:39:00,SystemResetWarning,0826.3,5.00,000.00,024.2,023.3,000.0,032.7,025.9,013.3,0000.0,0002.80,0007.67,0001.80
2024-04-22 07:40:00,SystemResetWarning,0826.3,5.00,000.00,024.2,023.4,000.0,032.7,026.0,013.0,0000.0,0002.81,0007.49,0001.80
2024-04-22 07:41:00,SystemResetWarning,0826.3,5.00,000.00,024.2,023.3,000.0,032.7,026.0,012.9,0000.0,0002.76,0007.46,0001.80
2024-04-22 07:42:00,SystemResetWarning,0826.2,5.00,000.00,024.2,023.3,000.0,032.7,026.0,012.7,0000.0,0002.73,0007.71,0001.82
2024-04-22 07:43:00,SystemResetWarning,0826.3,5.00,000.00,024.2,023.4,000.0,032.7,026.0,012.9,0000.0,0002.79,0007.75,0001.83
2024-04-22 07:44:00,SystemResetWarning,0826.2,5.01,000.00,024.2,023.4,000.0,032.7,026.0,012.6,0000.0,0002.82,0007.78,0001.83
2024-04-22 07:45:00,SystemResetWarning,0826.3,5.01,000.00,024.2,023.3,000.0,032.7,026.0,012.6,0000.0,0002.81,0007.73,0001.82
2024-04-22 07:46:00,SystemResetWarning,0826.3,5.00,000.00,024.1,023.3,000.0,032.7,026.0,012.3,0000.0,0002.84,0007.67,0001.82
2024-04-22 07:47:00,SystemResetWarning,0826.2,4.99,000.00,024.1,023.3,000.0,032.7,026.0,012.4,0000.0,0002.91,0008.31,0001.82
2024-04-22 07:48:00,SystemResetWarning,0826.2,4.99,000.00,024.2,023.3,000.0,032.7,026.0,012.4,0000.0,0002.95,0008.03,0001.82
2024-04-22 07:49:00,SystemResetWarning,0826.1,5.00,000.00,024.2,023.3,000.0,032.7,026.0,012.2,0000.0,0002.88,0007.84,0001.80
2024-04-22 07:50:00,SystemResetWarning,0826.0,5.00,000.00,024.2,023.4,000.0,032.7,026.0,012.1,0000.0,0002.82,0007.50,0001.79
2024-04-22 07:51:00,SystemResetWarning,0826.0,5.01,000.00,024.2,023.4,000.0,032.7,026.0,012.7,0000.0,0002.77,0007.44,0001.78
2024-04-22 07:52:00,SystemResetWarning,0826.0,5.00,000.00,024.2,023.4,000.0,032.7,026.0,013.6,0000.0,0002.75,0007.41,0001.78
2024-04-22 07:53:00,SystemResetWarning,0826.1,5.01,000.00,024.2,023.4,000.0,032.7,026.0,013.5,0000.0,0002.74,0006.69,0001.78
2024-04-22 07:54:00,SystemResetWarning,0826.2,5.00,000.00,024.2,023.4,000.0,032.7,026.0,013.0,0000.0,0002.70,0006.70,0001.77
2024-04-22 07:55:00,SystemResetWarning,0826.2,4.99,000.00,024.2,023.4,000.0,032.7,026.0,013.7,0000.0,0002.66,0007.67,0001.76
2024-04-22 07:56:00,SystemResetWarning,0826.2,5.00,000.00,024.2,023.4,000.0,032.7,025.9,013.8,0000.0,0002.66,0008.00,0001.75
2024-04-22 07:57:00,SystemResetWarning,0826.2,5.00,000.00,024.1,023.3,000.0,032.7,025.9,012.6,0000.0,0002.64,0008.01,0001.76
2024-04-22 07:58:00,SystemResetWarning,0826.1,5.00,000.00,024.1,023.3,000.0,032.6,025.9,012.2,0000.0,0002.59,0007.00,0001.76
2024-04-22 07:59:00,SystemResetWarning,0826.0,5.00,000.00,024.1,023.3,000.0,032.6,025.9,012.0,0000.0,0002.56,0006.49,0001.76
